This is the latest recevied weather packets stored in our database for station/object KF4UQS-14. If no packets are shown the sender has not sent any weather packets the latest 10 day(s).
| Time | Temp. | Humidity | Pressure | Rain* | Wind** | Luminosity | Snow |
|---|---|---|---|---|---|---|---|
| 1778260647 | 17.78° C | 59% | 1017.3 hPa | 0 mm | - | 820 W/m² | - |
| 1778260342 | 18.33° C | 57% | 1017.3 hPa | 0 mm | - | 806 W/m² | - |
| 1778260040 | 18.33° C | 59% | 1017.2 hPa | 0 mm | - | 806 W/m² | - |
| 1778259738 | 18.33° C | 58% | 1017.3 hPa | 0 mm | - | 806 W/m² | - |
| 1778259434 | 18.33° C | 58% | 1017.3 hPa | 0 mm | - | 806 W/m² | - |
| 1778259131 | 17.78° C | 58% | 1017.4 hPa | 0 mm | - | 806 W/m² | - |
| 1778258828 | 17.78° C | 59% | 1017.2 hPa | 0 mm | - | 824 W/m² | - |
| 1778258524 | 18.33° C | 59% | 1017.4 hPa | 0 mm | - | 848 W/m² | - |
| 1778258223 | 17.78° C | 61% | 1017.5 hPa | 0 mm | - | 857 W/m² | - |
| 1778257919 | 17.78° C | 58% | 1017.3 hPa | 0 mm | - | 850 W/m² | - |
| 1778257615 | 17.78° C | 58% | 1017.5 hPa | 0 mm | - | 854 W/m² | - |
| 1778257312 | 16.67° C | 58% | 1017.4 hPa | 0 mm | - | 140 W/m² | - |
| 1778257009 | 16.67° C | 59% | 1017.7 hPa | 0 mm | - | 154 W/m² | - |
| 1778256707 | 17.78° C | 60% | 1017.5 hPa | 0 mm | - | 139 W/m² | - |
| 1778256405 | 17.78° C | 64% | 1017.5 hPa | 0 mm | - | 187 W/m² | - |
| 1778256102 | 17.78° C | 64% | 1017.6 hPa | 0 mm | - | 853 W/m² | - |
| 1778255799 | 18.33° C | 60% | 1017.7 hPa | 0 mm | - | 881 W/m² | - |
| 1778255496 | 17.78° C | 54% | 1017.6 hPa | 0 mm | - | 817 W/m² | - |
| 1778255193 | 17.22° C | 59% | 1017.8 hPa | 0 mm | - | 799 W/m² | - |
| 1778254890 | 17.78° C | 65% | 1018 hPa | 0 mm | - | 772 W/m² | - |
| 1778254586 | 17.22° C | 61% | 1017.8 hPa | 0 mm | - | 780 W/m² | - |
| 1778254283 | 16.67° C | 64% | 1017.9 hPa | 0 mm | - | 778 W/m² | - |
| 1778253980 | 17.22° C | 62% | 1017.8 hPa | 0 mm | - | 383 W/m² | - |
| 1778253675 | 16.67° C | 57% | 1017.8 hPa | 0 mm | - | 756 W/m² | - |
| 1778253367 | 16.67° C | 63% | 1017.6 hPa | 0 mm | - | 732 W/m² | - |
* Rain latest hour (hover to see other rain measurements)
** Current wind speed in m/s (hover to see current wind gust speed)